Location: Gibsondale
(40.9931°N, 80.2478°W)
Time: 17:40:47
(UTC+00:00)

CSL-04 Rocket - Pass Details

Date: 29 October 2020
Orbit: 805 x 861 km, 98.9° (Epoch: 28 November)

Event Time Altitude Azimuth Distance (km) Brightness Sun altitude
Exits shadow 23:39:10 - 137° (SE) 2,807 6.1 -15.5°
Reaches altitude 10° 23:40:03 10° 134° (SE) 2,489 5.8 -15.7°
Maximum altitude 23:45:06 38° 68° (ENE) 1,282 4.2 -16.6°
Drops below altitude 10° 23:50:09 10° 2° (N) 2,483 6.1 -17.6°
Sets 23:52:39 0° 355° (N) 3,415 6.9 -18.0°
